Year,Month,Day,Hour,Minute,Value (Times are PST for temperature in C)
2015,06,11,00,00,11.30
2015,06,11,00,01,11.30
2015,06,11,00,02,11.20
2015,06,11,00,03,11.20
2015,06,11,00,04,11.20
2015,06,11,00,05,11.20
2015,06,11,00,06,11.20
2015,06,11,00,07,11.20
2015,06,11,00,08,11.20
2015,06,11,00,09,11.20
2015,06,11,00,10,11.10
2015,06,11,00,11,11.10
2015,06,11,00,12,11.10
2015,06,11,00,13,11.10
2015,06,11,00,14,11.10
2015,06,11,00,15,11.10
2015,06,11,00,16,11.10
2015,06,11,00,17,11.10
2015,06,11,00,18,11.00
2015,06,11,00,19,11.10
2015,06,11,00,20,11.10
2015,06,11,00,21,11.00
2015,06,11,00,22,11.10
2015,06,11,00,23,11.00
2015,06,11,00,24,11.00
2015,06,11,00,25,11.00
2015,06,11,00,26,11.00
2015,06,11,00,27,10.90
2015,06,11,00,28,10.90
2015,06,11,00,29,10.90
2015,06,11,00,30,10.90
2015,06,11,00,31,10.90
2015,06,11,00,32,10.80
2015,06,11,00,33,10.80
2015,06,11,00,34,10.80
2015,06,11,00,35,10.80
2015,06,11,00,36,10.80
2015,06,11,00,37,10.70
2015,06,11,00,38,10.70
2015,06,11,00,39,10.70
2015,06,11,00,40,10.70
2015,06,11,00,41,10.70
2015,06,11,00,42,10.60
2015,06,11,00,43,10.60
2015,06,11,00,44,10.60
2015,06,11,00,45,10.60
2015,06,11,00,46,10.60
2015,06,11,00,47,10.60
2015,06,11,00,48,10.60
2015,06,11,00,49,10.60
2015,06,11,00,50,10.50
2015,06,11,00,51,10.50
2015,06,11,00,52,10.50
2015,06,11,00,53,10.50
2015,06,11,00,54,10.40
2015,06,11,00,55,10.40
2015,06,11,00,56,10.40
2015,06,11,00,57,10.40
2015,06,11,00,58,10.40
2015,06,11,00,59,10.40
2015,06,11,01,00,10.40
2015,06,11,01,01,10.30
2015,06,11,01,02,10.30
2015,06,11,01,03,10.30
2015,06,11,01,04,10.30
2015,06,11,01,05,10.30
2015,06,11,01,06,10.30
2015,06,11,01,07,10.30
2015,06,11,01,08,10.30
2015,06,11,01,09,10.40
2015,06,11,01,10,10.40
2015,06,11,01,11,10.40
2015,06,11,01,12,10.30
2015,06,11,01,13,10.40
2015,06,11,01,14,10.40
2015,06,11,01,15,10.40
2015,06,11,01,16,10.40
2015,06,11,01,17,10.40
2015,06,11,01,18,10.40
2015,06,11,01,19,10.40
2015,06,11,01,20,10.40
2015,06,11,01,21,10.40
2015,06,11,01,22,10.40
2015,06,11,01,23,10.40
2015,06,11,01,24,10.40
2015,06,11,01,25,10.40
2015,06,11,01,26,10.30
2015,06,11,01,27,10.30
2015,06,11,01,28,10.30
2015,06,11,01,29,10.30
2015,06,11,01,30,10.30
2015,06,11,01,31,10.30
2015,06,11,01,32,10.30
2015,06,11,01,33,10.30
2015,06,11,01,34,10.30
2015,06,11,01,35,10.30
2015,06,11,01,36,10.40
2015,06,11,01,37,10.40
2015,06,11,01,38,10.30
2015,06,11,01,39,10.30
2015,06,11,01,40,10.30
2015,06,11,01,41,10.30
2015,06,11,01,42,10.30
2015,06,11,01,43,10.30
2015,06,11,01,44,10.20
2015,06,11,01,45,10.20
2015,06,11,01,46,10.20
2015,06,11,01,47,10.20
2015,06,11,01,48,10.10
2015,06,11,01,49,10.10
2015,06,11,01,50,10.10
2015,06,11,01,51,10.10
2015,06,11,01,52,10.10
2015,06,11,01,53,10.10
2015,06,11,01,54,10.10
2015,06,11,01,55,10.10
2015,06,11,01,56,10.10
2015,06,11,01,57,10.20
2015,06,11,01,58,10.20
2015,06,11,01,59,10.30
2015,06,11,02,00,10.40
2015,06,11,02,01,10.40
2015,06,11,02,02,10.50
2015,06,11,02,03,10.50
2015,06,11,02,04,10.60
2015,06,11,02,05,10.60
2015,06,11,02,06,10.60
2015,06,11,02,07,10.70
2015,06,11,02,08,10.70
2015,06,11,02,09,10.70
2015,06,11,02,10,10.70
2015,06,11,02,11,10.70
2015,06,11,02,12,10.70
2015,06,11,02,13,10.70
2015,06,11,02,14,10.60
2015,06,11,02,15,10.60
2015,06,11,02,16,10.60
2015,06,11,02,17,10.60
2015,06,11,02,18,10.60
2015,06,11,02,19,10.60
2015,06,11,02,20,10.60
2015,06,11,02,21,10.60
2015,06,11,02,22,10.60
2015,06,11,02,23,10.60
2015,06,11,02,24,10.60
2015,06,11,02,25,10.60
2015,06,11,02,26,10.60
2015,06,11,02,27,10.60
2015,06,11,02,28,10.60
2015,06,11,02,29,10.60
2015,06,11,02,30,10.60
2015,06,11,02,31,10.60
2015,06,11,02,32,10.60
2015,06,11,02,33,10.60
2015,06,11,02,34,10.60
2015,06,11,02,35,10.60
2015,06,11,02,36,10.60
2015,06,11,02,37,10.60
2015,06,11,02,38,10.60
2015,06,11,02,39,10.60
2015,06,11,02,40,10.50
2015,06,11,02,41,10.40
2015,06,11,02,42,10.40
2015,06,11,02,43,10.40
2015,06,11,02,44,10.40
2015,06,11,02,45,10.30
2015,06,11,02,46,10.30
2015,06,11,02,47,10.30
2015,06,11,02,48,10.30
2015,06,11,02,49,10.30
2015,06,11,02,50,10.30
2015,06,11,02,51,10.30
2015,06,11,02,52,10.30
2015,06,11,02,53,10.30
2015,06,11,02,54,10.30
2015,06,11,02,55,10.30
2015,06,11,02,56,10.30
2015,06,11,02,57,10.30
2015,06,11,02,58,10.30
2015,06,11,02,59,10.30
2015,06,11,03,00,10.30
2015,06,11,03,01,10.30
2015,06,11,03,02,10.30
2015,06,11,03,03,10.40
2015,06,11,03,04,10.40
2015,06,11,03,05,10.40
2015,06,11,03,06,10.40
2015,06,11,03,07,10.40
2015,06,11,03,08,10.40
2015,06,11,03,09,10.40
2015,06,11,03,10,10.40
2015,06,11,03,11,10.40
2015,06,11,03,12,10.40
2015,06,11,03,13,10.40
2015,06,11,03,14,10.40
2015,06,11,03,15,10.40
2015,06,11,03,16,10.40
2015,06,11,03,17,10.40
2015,06,11,03,18,10.40
2015,06,11,03,19,10.40
2015,06,11,03,20,10.50
2015,06,11,03,21,10.50
2015,06,11,03,22,10.50
2015,06,11,03,23,10.50
2015,06,11,03,24,10.50
2015,06,11,03,25,10.50
2015,06,11,03,26,10.40
2015,06,11,03,27,10.40
2015,06,11,03,28,10.40
2015,06,11,03,29,10.40
2015,06,11,03,30,10.50
2015,06,11,03,31,10.50
2015,06,11,03,32,10.50
2015,06,11,03,33,10.50
2015,06,11,03,34,10.40
2015,06,11,03,35,10.40
2015,06,11,03,36,10.40
2015,06,11,03,37,10.40
2015,06,11,03,38,10.40
2015,06,11,03,39,10.30
2015,06,11,03,40,10.30
2015,06,11,03,41,10.30
2015,06,11,03,42,10.30
2015,06,11,03,43,10.30
2015,06,11,03,44,10.20
2015,06,11,03,45,10.20
2015,06,11,03,46,10.30
2015,06,11,03,47,10.30
2015,06,11,03,48,10.30
2015,06,11,03,49,10.30
2015,06,11,03,50,10.30
2015,06,11,03,51,10.30
2015,06,11,03,52,10.30
2015,06,11,03,53,10.30
2015,06,11,03,54,10.30
2015,06,11,03,55,10.30
2015,06,11,03,56,10.30
2015,06,11,03,57,10.30
2015,06,11,03,58,10.30
2015,06,11,03,59,10.30
2015,06,11,04,00,10.30
2015,06,11,04,01,10.30
2015,06,11,04,02,10.30
2015,06,11,04,03,10.30
2015,06,11,04,04,10.30
2015,06,11,04,05,10.30
2015,06,11,04,06,10.30
2015,06,11,04,07,10.30
2015,06,11,05,02,10.30
2015,06,11,05,03,10.30
2015,06,11,05,04,10.30
2015,06,11,05,05,10.30
2015,06,11,05,06,10.30
2015,06,11,05,07,10.30
2015,06,11,05,08,10.30
2015,06,11,05,09,10.30
2015,06,11,05,10,10.30
2015,06,11,05,11,10.30
2015,06,11,05,12,10.30
2015,06,11,05,13,10.30
2015,06,11,05,14,10.30
2015,06,11,05,15,10.30
2015,06,11,05,16,10.30
2015,06,11,05,17,10.30
2015,06,11,05,18,10.30
2015,06,11,05,19,10.30
2015,06,11,05,20,10.30
2015,06,11,05,21,10.30
2015,06,11,05,22,10.30
2015,06,11,05,23,10.30
2015,06,11,05,24,10.30
2015,06,11,05,25,10.30
2015,06,11,05,26,10.30
2015,06,11,05,27,10.30
2015,06,11,05,28,10.30
2015,06,11,05,29,10.30
2015,06,11,05,30,10.30
2015,06,11,05,31,10.30
2015,06,11,05,32,10.30
2015,06,11,05,33,10.40
2015,06,11,05,34,10.40
2015,06,11,05,35,10.40
2015,06,11,05,36,10.40
2015,06,11,05,37,10.40
2015,06,11,05,38,10.50
2015,06,11,05,39,10.50
2015,06,11,05,40,10.50
2015,06,11,05,41,10.50
2015,06,11,05,42,10.50
2015,06,11,05,43,10.40
2015,06,11,05,44,10.40
2015,06,11,05,45,10.40
2015,06,11,05,46,10.40
2015,06,11,05,47,10.40
2015,06,11,05,48,10.40
2015,06,11,05,49,10.40
2015,06,11,05,50,10.40
2015,06,11,05,51,10.40
2015,06,11,05,52,10.30
2015,06,11,05,53,10.30
2015,06,11,05,54,10.30
2015,06,11,05,55,10.30
2015,06,11,05,56,10.30
2015,06,11,05,57,10.40
2015,06,11,05,58,10.40
2015,06,11,05,59,10.40
2015,06,11,06,00,10.40
2015,06,11,06,01,10.40
2015,06,11,06,02,10.40
2015,06,11,06,03,10.40
2015,06,11,06,04,10.40
2015,06,11,06,05,10.40
2015,06,11,06,06,10.40
2015,06,11,06,07,10.40
2015,06,11,06,08,10.40
2015,06,11,06,09,10.40
2015,06,11,06,10,10.50
2015,06,11,06,11,10.50
2015,06,11,06,12,10.50
2015,06,11,06,13,10.60
2015,06,11,06,14,10.60
2015,06,11,06,15,10.70
2015,06,11,06,16,10.70
2015,06,11,06,17,10.80
2015,06,11,06,18,10.80
2015,06,11,06,19,10.90
2015,06,11,06,20,10.90
2015,06,11,06,21,10.90
2015,06,11,06,22,11.00
2015,06,11,06,23,11.00
2015,06,11,06,24,11.10
2015,06,11,06,25,11.10
2015,06,11,06,26,11.10
2015,06,11,06,27,11.20
2015,06,11,06,28,11.20
2015,06,11,06,29,11.20
2015,06,11,06,30,11.30
2015,06,11,06,31,11.30
2015,06,11,06,32,11.40
2015,06,11,06,33,11.50
2015,06,11,06,34,11.50
2015,06,11,06,35,11.60
2015,06,11,06,36,11.60
2015,06,11,06,37,11.60
2015,06,11,06,38,11.70
2015,06,11,06,39,11.70
2015,06,11,06,40,11.70
2015,06,11,06,41,11.70
2015,06,11,06,42,11.80
2015,06,11,06,43,11.80
2015,06,11,06,44,11.80
2015,06,11,06,45,11.80
2015,06,11,06,46,11.80
2015,06,11,06,47,11.80
2015,06,11,06,48,11.80
2015,06,11,06,49,11.80
2015,06,11,06,50,11.80
2015,06,11,06,51,11.90
2015,06,11,06,52,11.90
2015,06,11,06,53,11.90
2015,06,11,06,54,11.90
2015,06,11,06,55,11.90
2015,06,11,06,56,11.90
2015,06,11,06,57,11.90
2015,06,11,06,58,11.90
2015,06,11,06,59,12.00
2015,06,11,07,00,12.00
2015,06,11,07,01,12.00
2015,06,11,07,02,12.00
2015,06,11,07,03,12.00
2015,06,11,07,04,12.00
2015,06,11,07,05,12.00
2015,06,11,07,06,12.00
2015,06,11,07,07,12.00
2015,06,11,07,08,12.00
2015,06,11,07,09,12.10
2015,06,11,07,10,12.10
2015,06,11,07,11,12.10
2015,06,11,07,12,12.20
2015,06,11,07,13,12.20
2015,06,11,07,14,12.20
2015,06,11,07,15,12.30
2015,06,11,07,16,12.30
2015,06,11,07,17,12.30
2015,06,11,07,18,12.30
2015,06,11,07,19,12.40
2015,06,11,07,20,12.40
2015,06,11,07,21,12.40
2015,06,11,07,22,12.50
2015,06,11,07,23,12.50
2015,06,11,07,24,12.50
2015,06,11,07,25,12.60
2015,06,11,07,26,12.60
2015,06,11,07,27,12.60
2015,06,11,07,28,12.70
2015,06,11,07,29,12.70
2015,06,11,07,30,12.70
2015,06,11,07,31,12.80
2015,06,11,07,32,12.80
2015,06,11,07,33,12.80
2015,06,11,07,34,12.80
2015,06,11,07,35,12.90
2015,06,11,07,36,12.90
2015,06,11,07,37,12.90
2015,06,11,07,38,12.90
2015,06,11,07,39,12.90
2015,06,11,07,40,12.90
2015,06,11,07,41,12.90
2015,06,11,07,42,12.80
2015,06,11,07,43,12.80
2015,06,11,07,44,12.80
2015,06,11,07,45,12.80
2015,06,11,07,46,12.80
2015,06,11,07,47,12.80
2015,06,11,07,48,12.90
2015,06,11,07,49,12.90
2015,06,11,07,50,13.00
2015,06,11,07,51,13.10
2015,06,11,07,52,13.10
2015,06,11,07,53,13.20
2015,06,11,07,54,13.30
2015,06,11,07,55,13.40
2015,06,11,07,56,13.40
2015,06,11,07,57,13.50
2015,06,11,07,58,13.60
2015,06,11,07,59,13.60
2015,06,11,08,00,13.70
2015,06,11,08,01,13.80
2015,06,11,08,02,13.90
2015,06,11,08,03,14.00
2015,06,11,08,04,14.10
2015,06,11,08,05,14.20
2015,06,11,08,06,14.30
2015,06,11,08,07,14.30
2015,06,11,08,08,14.30
2015,06,11,08,09,14.40
2015,06,11,08,10,14.50
2015,06,11,08,11,14.60
2015,06,11,08,12,14.60
2015,06,11,08,13,14.70
2015,06,11,08,14,14.70
2015,06,11,08,15,14.70
2015,06,11,08,16,14.80
2015,06,11,08,17,14.80
2015,06,11,08,18,14.90
2015,06,11,08,19,14.90
2015,06,11,08,20,14.90
2015,06,11,08,21,14.90
2015,06,11,08,22,14.90
2015,06,11,08,23,14.90
2015,06,11,08,24,15.00
2015,06,11,08,25,15.00
2015,06,11,08,26,15.00
2015,06,11,08,27,15.00
2015,06,11,08,28,15.10
2015,06,11,08,29,15.10
2015,06,11,08,30,15.10
2015,06,11,08,31,15.10
2015,06,11,08,32,15.20
2015,06,11,08,33,15.10
2015,06,11,08,34,15.10
2015,06,11,08,35,15.10
2015,06,11,08,36,15.20
2015,06,11,08,37,15.20
2015,06,11,08,38,15.20
2015,06,11,08,39,15.20
2015,06,11,08,40,15.20
2015,06,11,08,41,15.20
2015,06,11,08,42,15.20
2015,06,11,08,43,15.20
2015,06,11,08,44,15.30
2015,06,11,08,45,15.30
2015,06,11,08,46,15.30
2015,06,11,08,47,15.30
2015,06,11,08,48,15.30
2015,06,11,08,49,15.30
2015,06,11,08,50,15.40
2015,06,11,08,51,15.40
2015,06,11,08,52,15.50
2015,06,11,08,53,15.60
2015,06,11,08,54,15.50
2015,06,11,08,55,15.50
2015,06,11,08,56,15.50
2015,06,11,08,57,15.50
2015,06,11,08,58,15.50
2015,06,11,08,59,15.40
2015,06,11,09,00,15.40
2015,06,11,09,01,15.40
2015,06,11,09,02,15.50
2015,06,11,09,03,15.60
2015,06,11,09,04,15.60
2015,06,11,09,05,15.70
2015,06,11,09,06,15.70
2015,06,11,09,07,15.70
2015,06,11,09,08,15.80
2015,06,11,09,09,15.80
2015,06,11,09,10,15.90
2015,06,11,09,11,15.90
2015,06,11,09,12,16.00
2015,06,11,09,13,16.00
2015,06,11,09,14,16.10
2015,06,11,09,15,16.10
2015,06,11,09,16,16.10
2015,06,11,09,17,16.10
2015,06,11,09,18,16.10
2015,06,11,09,19,16.10
2015,06,11,09,20,16.10
2015,06,11,09,21,16.20
2015,06,11,09,22,16.20
2015,06,11,09,23,16.30
2015,06,11,09,24,16.30
2015,06,11,09,25,16.40
2015,06,11,09,26,16.40
2015,06,11,09,27,16.40
2015,06,11,09,28,16.40
2015,06,11,09,29,16.30
2015,06,11,09,30,16.20
2015,06,11,09,31,16.20
2015,06,11,09,32,16.20
2015,06,11,09,33,16.20
2015,06,11,09,34,16.30
2015,06,11,09,35,16.40
2015,06,11,09,36,16.50
2015,06,11,09,37,16.50
2015,06,11,09,38,16.50
2015,06,11,09,39,16.50
2015,06,11,09,40,16.50
2015,06,11,09,41,16.50
2015,06,11,09,42,16.50
2015,06,11,09,43,16.50
2015,06,11,09,44,16.50
2015,06,11,09,45,16.50
2015,06,11,09,46,16.50
2015,06,11,09,47,16.50
2015,06,11,09,48,16.40
2015,06,11,09,49,16.30
2015,06,11,09,50,16.30
2015,06,11,09,51,16.30
2015,06,11,09,52,16.30
2015,06,11,09,53,16.40
2015,06,11,09,54,16.40
2015,06,11,09,55,16.40
2015,06,11,09,56,16.40
2015,06,11,09,57,16.40
2015,06,11,09,58,16.40
2015,06,11,09,59,16.30
2015,06,11,10,00,16.30
2015,06,11,10,01,16.40
2015,06,11,10,02,16.40
2015,06,11,10,03,16.40
2015,06,11,10,04,16.40
2015,06,11,10,05,16.40
2015,06,11,10,06,16.30
2015,06,11,10,07,16.20
2015,06,11,10,08,16.20
2015,06,11,10,09,16.20
2015,06,11,10,10,16.20
2015,06,11,10,11,16.30
2015,06,11,10,12,16.30
2015,06,11,10,13,16.30
2015,06,11,10,14,16.30
2015,06,11,10,15,16.30
2015,06,11,10,16,16.40
2015,06,11,10,17,16.40
2015,06,11,10,18,16.40
2015,06,11,10,19,16.50
2015,06,11,10,20,16.50
2015,06,11,10,21,16.50
2015,06,11,10,22,16.60
2015,06,11,10,23,16.60
2015,06,11,10,24,16.60
2015,06,11,10,25,16.70
2015,06,11,10,26,16.70
2015,06,11,10,27,16.80
2015,06,11,10,28,17.00
2015,06,11,10,29,17.10
2015,06,11,10,30,17.10
2015,06,11,10,31,17.00
2015,06,11,10,32,16.90
2015,06,11,10,33,17.00
2015,06,11,10,34,17.00
2015,06,11,10,35,16.90
2015,06,11,10,36,16.90
2015,06,11,10,37,17.00
2015,06,11,10,38,17.00
2015,06,11,10,39,17.00
2015,06,11,10,40,17.10
2015,06,11,10,41,17.20
2015,06,11,10,42,17.20
2015,06,11,10,43,17.20
2015,06,11,10,44,17.30
2015,06,11,10,45,17.30
2015,06,11,10,46,17.40
2015,06,11,10,47,17.50
2015,06,11,10,48,17.50
2015,06,11,10,49,17.70
2015,06,11,10,50,17.70
2015,06,11,10,51,17.80
2015,06,11,10,52,17.80
2015,06,11,10,53,17.80
2015,06,11,10,54,17.80
2015,06,11,10,55,17.80
2015,06,11,10,56,17.90
2015,06,11,10,57,18.00
2015,06,11,10,58,18.00
2015,06,11,10,59,18.00
2015,06,11,11,00,18.00
2015,06,11,11,01,17.90
2015,06,11,11,02,17.90
2015,06,11,11,03,17.90
2015,06,11,11,04,17.80
2015,06,11,11,05,17.80
2015,06,11,11,06,17.90
2015,06,11,11,07,17.90
2015,06,11,11,08,17.80
2015,06,11,11,09,17.60
2015,06,11,11,10,17.40
2015,06,11,11,11,17.30
2015,06,11,11,12,17.30
2015,06,11,11,13,17.30
2015,06,11,11,14,17.30
2015,06,11,11,15,17.30
2015,06,11,11,16,17.30
2015,06,11,11,17,17.20
2015,06,11,11,18,17.20
2015,06,11,11,19,17.20
2015,06,11,11,20,17.20
2015,06,11,11,21,17.20
2015,06,11,11,22,17.20
2015,06,11,11,23,17.30
2015,06,11,11,24,17.30
2015,06,11,11,25,17.40
2015,06,11,11,26,17.30
2015,06,11,11,27,17.30
2015,06,11,11,28,17.20
2015,06,11,11,29,17.10
2015,06,11,11,30,16.90
2015,06,11,11,31,16.80
2015,06,11,11,32,16.80
2015,06,11,11,33,16.80
2015,06,11,11,34,16.80
2015,06,11,11,35,16.80
2015,06,11,11,36,16.80
2015,06,11,11,37,16.80
2015,06,11,11,38,16.80
2015,06,11,11,39,16.90
2015,06,11,11,40,16.90
2015,06,11,11,41,16.90
2015,06,11,11,42,17.00
2015,06,11,11,43,17.10
2015,06,11,11,44,17.10
2015,06,11,11,45,17.20
2015,06,11,11,46,17.20
2015,06,11,11,47,17.30
2015,06,11,11,48,17.30
2015,06,11,11,49,17.30
2015,06,11,11,50,17.30
2015,06,11,11,51,17.30
2015,06,11,11,52,17.40
2015,06,11,11,53,17.40
2015,06,11,11,54,17.50
2015,06,11,11,55,17.50
2015,06,11,11,56,17.60
2015,06,11,11,57,17.60
2015,06,11,11,58,17.50
2015,06,11,11,59,17.50
2015,06,11,12,00,17.50
2015,06,11,12,01,17.50
2015,06,11,12,02,17.50
2015,06,11,12,03,17.50
2015,06,11,12,04,17.50
2015,06,11,12,05,17.50
2015,06,11,12,06,17.60
2015,06,11,12,07,17.70
2015,06,11,12,08,17.70
2015,06,11,12,09,17.60
2015,06,11,12,10,17.50
2015,06,11,12,11,17.50
2015,06,11,12,12,17.40
2015,06,11,12,13,17.40
2015,06,11,12,14,17.40
2015,06,11,12,15,17.40
2015,06,11,12,16,17.50
2015,06,11,12,17,17.50
2015,06,11,12,18,17.60
2015,06,11,12,19,17.60
2015,06,11,12,20,17.70
2015,06,11,12,21,17.70
2015,06,11,12,22,17.80
2015,06,11,12,23,17.80
2015,06,11,12,24,17.80
2015,06,11,12,25,17.80
2015,06,11,12,26,17.80
2015,06,11,12,27,17.70
2015,06,11,12,28,17.70
2015,06,11,12,29,17.80
2015,06,11,12,30,17.90
2015,06,11,12,31,17.90
2015,06,11,12,32,18.00
2015,06,11,12,33,18.10
2015,06,11,12,34,18.10
2015,06,11,12,35,18.20
2015,06,11,12,36,18.20
2015,06,11,12,37,18.20
2015,06,11,12,38,18.20
2015,06,11,12,39,18.20
2015,06,11,12,40,18.10
2015,06,11,12,41,18.10
2015,06,11,12,42,18.20
2015,06,11,12,43,18.20
2015,06,11,12,44,18.30
2015,06,11,12,45,18.30
2015,06,11,12,46,18.30
2015,06,11,12,47,18.30
2015,06,11,12,48,18.30
2015,06,11,12,49,18.40
2015,06,11,12,50,18.40
2015,06,11,12,51,18.40
2015,06,11,12,52,18.50
2015,06,11,12,53,18.50
2015,06,11,12,54,18.50
2015,06,11,12,55,18.50
2015,06,11,12,56,18.50
2015,06,11,12,57,18.40
2015,06,11,12,58,18.30
2015,06,11,12,59,18.40
2015,06,11,13,00,18.50
2015,06,11,13,01,18.60
2015,06,11,13,02,18.70
2015,06,11,13,03,18.70
2015,06,11,13,04,18.70
2015,06,11,13,05,18.60
2015,06,11,13,06,18.60
2015,06,11,13,07,18.60
2015,06,11,13,08,18.60
2015,06,11,13,09,18.70
2015,06,11,13,10,18.70
2015,06,11,13,11,18.80
2015,06,11,13,12,18.80
2015,06,11,13,13,18.80
2015,06,11,13,14,18.90
2015,06,11,13,15,18.80
2015,06,11,13,16,18.70
2015,06,11,13,17,18.70
2015,06,11,13,18,18.70
2015,06,11,13,19,18.80
2015,06,11,13,20,18.90
2015,06,11,13,21,19.00
2015,06,11,13,22,19.10
2015,06,11,13,23,19.00
2015,06,11,13,24,18.90
2015,06,11,13,25,18.90
2015,06,11,13,26,18.80
2015,06,11,13,27,18.80
2015,06,11,13,28,18.80
2015,06,11,13,29,18.70
2015,06,11,13,30,18.70
2015,06,11,13,31,18.60
2015,06,11,13,32,18.60
2015,06,11,13,33,18.60
2015,06,11,13,34,18.60
2015,06,11,13,35,18.70
2015,06,11,13,36,18.70
2015,06,11,13,37,18.80
2015,06,11,13,38,18.80
2015,06,11,13,39,18.80
2015,06,11,13,40,18.70
2015,06,11,13,41,18.70
2015,06,11,13,42,18.70
2015,06,11,13,43,18.60
2015,06,11,13,44,18.60
2015,06,11,13,45,18.50
2015,06,11,13,46,18.50
2015,06,11,13,47,18.60
2015,06,11,13,48,18.80
2015,06,11,13,49,18.80
2015,06,11,13,50,18.80
2015,06,11,13,51,18.80
2015,06,11,13,52,18.90
2015,06,11,13,53,18.90
2015,06,11,13,54,18.80
2015,06,11,13,55,18.80
2015,06,11,13,56,18.70
2015,06,11,13,57,18.70
2015,06,11,13,58,18.70
2015,06,11,13,59,18.60
2015,06,11,14,00,18.60
2015,06,11,14,01,18.50
2015,06,11,14,02,18.50
2015,06,11,14,03,18.50
2015,06,11,14,04,18.50
2015,06,11,14,05,18.50
2015,06,11,14,06,18.50
2015,06,11,14,07,18.50
2015,06,11,14,08,18.50
2015,06,11,14,09,18.40
2015,06,11,14,10,18.30
2015,06,11,14,11,18.30
2015,06,11,14,12,18.30
2015,06,11,14,13,18.30
2015,06,11,14,14,18.20
2015,06,11,14,15,18.20
2015,06,11,14,16,18.20
2015,06,11,14,17,18.20
2015,06,11,14,18,18.20
2015,06,11,14,19,18.10
2015,06,11,14,20,18.10
2015,06,11,14,21,18.10
2015,06,11,14,22,18.20
2015,06,11,14,23,18.30
2015,06,11,14,24,18.20
2015,06,11,14,25,18.20
2015,06,11,14,26,18.20
2015,06,11,14,27,18.20
2015,06,11,14,28,18.20
2015,06,11,14,29,18.20
2015,06,11,14,30,18.30
2015,06,11,14,31,18.40
2015,06,11,14,32,18.50
2015,06,11,14,33,18.50
2015,06,11,14,34,18.60
2015,06,11,14,35,18.50
2015,06,11,14,36,18.50
2015,06,11,14,37,18.50
2015,06,11,14,38,18.50
2015,06,11,14,39,18.40
2015,06,11,14,40,18.20
2015,06,11,14,41,18.30
2015,06,11,14,42,18.30
2015,06,11,14,43,18.40
2015,06,11,14,44,18.40
2015,06,11,14,45,18.40
2015,06,11,14,46,18.50
2015,06,11,14,47,18.60
2015,06,11,14,48,18.70
2015,06,11,14,49,18.70
2015,06,11,14,50,18.70
2015,06,11,14,51,18.70
2015,06,11,14,52,18.60
2015,06,11,14,53,18.60
2015,06,11,14,54,18.60
2015,06,11,14,55,18.80
2015,06,11,14,56,18.90
2015,06,11,14,57,18.90
2015,06,11,14,58,19.00
2015,06,11,14,59,19.10
2015,06,11,15,00,19.10
2015,06,11,15,01,19.10
2015,06,11,15,02,19.00
2015,06,11,15,03,18.90
2015,06,11,15,04,18.90
2015,06,11,15,05,19.00
2015,06,11,15,06,19.10
2015,06,11,15,07,19.10
2015,06,11,15,08,19.20
2015,06,11,15,09,19.20
2015,06,11,15,10,19.00
2015,06,11,15,11,18.90
2015,06,11,15,12,18.90
2015,06,11,15,13,18.90
2015,06,11,15,14,18.80
2015,06,11,15,15,18.80
2015,06,11,15,16,18.80
2015,06,11,15,17,18.70
2015,06,11,15,18,18.70
2015,06,11,15,19,18.70
2015,06,11,15,20,18.80
2015,06,11,15,21,18.80
2015,06,11,15,22,18.80
2015,06,11,15,23,18.80
2015,06,11,15,24,18.80
2015,06,11,15,25,18.70
2015,06,11,15,26,18.50
2015,06,11,15,27,18.30
2015,06,11,15,28,18.30
2015,06,11,15,29,18.40
2015,06,11,15,30,18.40
2015,06,11,15,31,18.30
2015,06,11,15,32,18.30
2015,06,11,15,33,18.30
2015,06,11,15,34,18.20
2015,06,11,15,35,18.20
2015,06,11,15,36,18.20
2015,06,11,15,37,18.20
2015,06,11,15,38,18.10
2015,06,11,15,39,18.10
2015,06,11,15,40,18.10
2015,06,11,15,41,18.10
2015,06,11,15,42,18.10
2015,06,11,15,43,18.10
2015,06,11,15,44,18.00
2015,06,11,15,45,17.90
2015,06,11,15,46,17.90
2015,06,11,15,47,17.90
2015,06,11,15,48,18.00
2015,06,11,15,49,18.00
2015,06,11,15,50,18.10
2015,06,11,15,51,18.10
2015,06,11,15,52,18.20
2015,06,11,15,53,18.30
2015,06,11,15,54,18.40
2015,06,11,15,55,18.40
2015,06,11,15,56,18.40
2015,06,11,15,57,18.40
2015,06,11,15,58,18.40
2015,06,11,15,59,18.30
2015,06,11,16,00,18.20
2015,06,11,16,01,18.20
2015,06,11,16,02,18.20
2015,06,11,16,03,18.20
2015,06,11,16,04,18.20
2015,06,11,16,05,18.20
2015,06,11,16,06,18.30
2015,06,11,16,07,18.30
2015,06,11,16,08,18.30
2015,06,11,16,09,18.20
2015,06,11,16,10,18.10
2015,06,11,16,11,18.00
2015,06,11,16,12,18.00
2015,06,11,16,13,17.90
2015,06,11,16,14,17.80
2015,06,11,16,15,17.70
2015,06,11,16,16,17.70
2015,06,11,16,17,17.60
2015,06,11,16,18,17.50
2015,06,11,16,19,17.40
2015,06,11,16,20,17.40
2015,06,11,16,21,17.40
2015,06,11,16,22,17.40
2015,06,11,16,23,17.30
2015,06,11,16,24,17.20
2015,06,11,16,25,17.30
2015,06,11,16,26,17.40
2015,06,11,16,27,17.40
2015,06,11,16,28,17.50
2015,06,11,16,29,17.50
2015,06,11,16,30,17.60
2015,06,11,16,31,17.70
2015,06,11,16,32,17.70
2015,06,11,16,33,17.70
2015,06,11,16,34,17.70
2015,06,11,16,35,17.70
2015,06,11,16,36,17.60
2015,06,11,16,37,17.50
2015,06,11,16,38,17.40
2015,06,11,16,39,17.40
2015,06,11,16,40,17.50
2015,06,11,16,41,17.50
2015,06,11,16,42,17.50
2015,06,11,16,43,17.40
2015,06,11,16,44,17.30
2015,06,11,16,45,17.30
2015,06,11,16,46,17.20
2015,06,11,16,47,17.20
2015,06,11,16,48,17.20
2015,06,11,16,49,17.30
2015,06,11,16,50,17.30
2015,06,11,16,51,17.30
2015,06,11,16,52,17.30
2015,06,11,16,53,17.20
2015,06,11,16,54,17.30
2015,06,11,16,55,17.40
2015,06,11,16,56,17.40
2015,06,11,16,57,17.40
2015,06,11,16,58,17.30
2015,06,11,16,59,17.30
2015,06,11,17,00,17.20
2015,06,11,17,01,17.00
2015,06,11,17,02,17.00
2015,06,11,17,03,16.90
2015,06,11,17,04,16.80
2015,06,11,17,05,16.80
2015,06,11,17,06,16.80
2015,06,11,17,07,16.70
2015,06,11,17,08,16.60
2015,06,11,17,09,16.60
2015,06,11,17,10,16.60
2015,06,11,17,11,16.60
2015,06,11,17,12,16.60
2015,06,11,17,13,16.60
2015,06,11,17,14,16.50
2015,06,11,17,15,16.40
2015,06,11,17,16,16.30
2015,06,11,17,17,16.30
2015,06,11,17,18,16.30
2015,06,11,17,19,16.40
2015,06,11,17,20,16.40
2015,06,11,17,21,16.40
2015,06,11,17,22,16.40
2015,06,11,17,23,16.40
2015,06,11,17,24,16.40
2015,06,11,17,25,16.40
2015,06,11,17,26,16.50
2015,06,11,17,27,16.50
2015,06,11,17,28,16.60
2015,06,11,17,29,16.70
2015,06,11,17,30,16.90
2015,06,11,17,31,16.90
2015,06,11,17,32,16.90
2015,06,11,17,33,16.80
2015,06,11,17,34,16.80
2015,06,11,17,35,16.80
2015,06,11,17,36,16.80
2015,06,11,17,37,16.80
2015,06,11,17,38,16.90
2015,06,11,17,39,17.00
2015,06,11,17,40,17.10
2015,06,11,17,41,17.10
2015,06,11,17,42,17.10
2015,06,11,17,43,17.10
2015,06,11,17,44,17.10
2015,06,11,17,45,17.20
2015,06,11,17,46,17.30
2015,06,11,17,47,17.40
2015,06,11,17,48,17.40
2015,06,11,17,49,17.40
2015,06,11,17,50,17.40
2015,06,11,17,51,17.30
2015,06,11,17,52,17.30
2015,06,11,17,53,17.30
2015,06,11,17,54,17.30
2015,06,11,17,55,17.30
2015,06,11,17,56,17.40
2015,06,11,17,57,17.40
2015,06,11,17,58,17.50
2015,06,11,17,59,17.50
2015,06,11,18,00,17.50
2015,06,11,18,01,17.50
2015,06,11,18,02,17.60
2015,06,11,18,03,17.60
2015,06,11,18,04,17.60
2015,06,11,18,05,17.60
2015,06,11,18,06,17.60
2015,06,11,18,07,17.60
2015,06,11,18,08,17.60
2015,06,11,18,09,17.70
2015,06,11,18,10,17.70
2015,06,11,18,11,17.70
2015,06,11,18,12,17.70
2015,06,11,18,13,17.70